This demonstration page uses our WeatherBlox Daily Observations layout. Learn more.

Left ArrowRight Arrow

Hourly Observations for October 3, 2021

Temp ( °F °C ) Dew Point ( °F °C ) Humidity (%) Winds ( mph kmh ) Pressure ( in mb ) Visibility ( mi km ) Precip ( " mm )
12:53 am 00:53 Clear 52 11.1 45 7.2 77 77 W 5 7 30.06 1018 10 16 N/A
1:53 am 01:53 Clear 50 10 45 7.2 83 83 W 3 6 30.07 1018 10 16 N/A
2:53 am 02:53 Clear 49 9.4 45 7.2 86 86 N N/A 30.07 1018 10 16 N/A
3:53 am 03:53 Clear 49 9.4 46 7.8 90 90 WNW 5 7 30.07 1018 10 16 N/A
4:53 am 04:53 Clear 48 8.9 45 7.2 89 89 WNW 3 6 30.06 1018 10 16 N/A
5:53 am 05:53 Clear 47 8.3 44 6.7 90 90 WNW 3 6 30.07 1018 10 16 N/A
6:53 am 06:53 Clear 48 8.9 44 6.7 86 86 N N/A 30.08 1019 10 16 N/A
7:53 am 07:53 Sunny 48 8.9 44 6.7 86 86 WNW 3 6 30.09 1019 7 11 N/A
8:53 am 08:53 Sunny 55 12.8 48 8.9 77 77 N N/A 30.10 1019 7 11 N/A
9:53 am 09:53 Sunny 62 16.7 51 10.6 67 67 NW 5 7 30.10 1019 10 16 N/A
10:53 am 10:53 Sunny 67 19.4 48 8.9 51 51 NW 10 17 30.11 1020 10 16 N/A
11:53 am 11:53 Sunny 72 22.2 48 8.9 43 43 N 7 11 30.09 1019 10 16 N/A
12:53 pm 12:53 Sunny 75 23.9 42 5.6 31 31 NNE 8 13 30.08 1019 10 16 N/A
1:53 pm 13:53 Sunny 77 25 40 4.4 26 26 VRB 5 7 30.05 1018 10 16 N/A
2:53 pm 14:53 Sunny 78 25.6 38 3.3 24 24 N 7 11 30.04 1017 10 16 N/A
3:53 pm 15:53 Sunny 80 26.7 40 4.4 24 24 N 7 11 30.02 1017 10 16 N/A
4:53 pm 16:53 Sunny 80 26.7 39 3.9 23 23 VRB 3 6 30.01 1016 10 16 N/A
7:30 pm 19:30 Clear 66 19 45 7 46 46 E 3 6 29.99 1016 7 11 N/A
7:35 pm 19:35 Clear 64 18 43 6 46 46 E 3 6 30.00 1016 7 11 N/A
7:55 pm 19:55 Clear 64 18 45 7 49 49 ESE 3 6 30.00 1016 10 16 N/A
8:53 pm 20:53 Clear 60 15.6 48 8.9 65 65 N N/A 30.04 1017 10 16 N/A
9:53 pm 21:53 Clear 57 13.9 48 8.9 72 72 N N/A 30.04 1017 10 16 N/A
10:53 pm 22:53 Clear 55 12.8 46 7.8 72 72 N N/A 30.05 1018 10 16 N/A
11:53 pm 23:53 Clear 52 11.1 46 7.8 80 80 N N/A 30.04 1017 10 16 N/A

Powered by AerisWeather